YT1XN Weather Reports


time (UTC)temp
F
wind
direction
speed
knots
gust
knots
rain 1hr
in
rain 24hr
in
rain mn
in
humidity
%
barometer
mb
20260906023959 68 9 0.0 0.0 0.00 0.00 0.00 63 1024.7
20260906023500 68 9 0.0 0.0 0.00 0.00 0.00 62 1024.8
20260906022458 68 9 0.0 0.9 0.00 0.00 0.00 61 1024.5
20260906021959 68 9 0.0 0.0 0.00 0.00 0.00 61 1024.5
20260906021459 69 9 0.0 0.0 0.00 0.00 0.00 61 1024.6
20260906020959 69 9 0.0 0.9 0.00 0.00 0.00 61 1024.6
20260906020459 69 9 0.0 0.9 0.00 0.00 0.00 61 1024.6
20260906015459 69 9 0.0 0.0 0.00 0.00 0.00 60 1024.5
20260906015000 69 9 0.9 2.6 0.00 0.00 0.00 61 1024.5
20260906014459 69 9 1.7 2.6 0.00 0.00 0.00 60 1024.5
20260906013959 69 15 0.9 3.5 0.00 0.00 0.00 59 1024.5
20260906012000 70 9 0.9 2.6 0.00 0.00 0.00 59 1024.3
20260906011459 70 5 0.9 2.6 0.00 0.00 0.00 58 1024.4
20260906010459 70 341 0.9 2.6 0.00 0.00 0.00 58 1024.5
20260906010003 70 349 0.9 4.3 0.00 0.00 0.00 58 1024.5
20260906005500 70 331 1.7 4.3 0.00 0.00 0.00 57 1024.2
20260906005001 70 329 0.9 3.5 0.00 0.00 0.00 57 1024.2
20260906004001 70 21 0.9 3.5 0.00 0.00 0.00 57 1024.3
20260906003501 70 14 0.9 3.5 0.00 0.00 0.00 56 1024.2
20260906003000 70 5 0.9 4.3 0.00 0.00 0.00 56 1024.2
20260906002501 71 360 1.7 5.2 0.00 0.00 0.00 56 1024.0
20260906002000 71 21 1.7 5.2 0.00 0.00 0.00 56 1024.2
20260906001500 71 5 0.9 4.3 0.00 0.00 0.00 56 1024.1
20260906001002 71 355 1.7 7.8 0.00 0.00 0.00 56 1024.1
20260906000501 71 71 1.7 7.8 0.00 0.00 0.00 56 1024.1
20260905234959 70 5 2.6 5.2 0.00 0.00 0.00 56 1024.0
20260905234459 70 18 2.6 5.2 0.00 0.00 0.00 56 1024.0
20260905233959 70 5 2.6 7.0 0.00 0.00 0.00 57 1024.0
20260905233500 70 15 1.7 5.2 0.00 0.00 0.00 57 1024.0
20260905232459 69 344 0.9 2.6 0.00 0.00 0.00 57 1023.8
20260905232000 69 355 0.0 1.7 0.00 0.00 0.00 58 1023.7
20260905231459 69 311 0.0 1.7 0.00 0.00 0.00 57 1023.7
20260905230001 69 345 0.9 2.6 0.00 0.00 0.00 57 1023.5
20260905225502 69 355 0.9 3.5 0.00 0.00 0.00 57 1023.7
20260905225001 69 355 0.9 1.7 0.00 0.00 0.00 57 1023.7
20260905224502 69 350 0.0 1.7 0.00 0.00 0.00 57 1023.6
20260905224001 69 360 0.0 0.9 0.00 0.00 0.00 57 1023.5
20260905223502 69 355 0.0 1.7 0.00 0.00 0.00 56 1023.4
20260905223004 70 360 0.0 1.7 0.00 0.00 0.00 56 1023.4
20260905222501 70 355 0.0 0.9 0.00 0.00 0.00 55 1023.3
20260905222001 70 355 0.0 0.9 0.00 0.00 0.00 55 1023.3
20260905221502 71 355 0.0 0.9 0.00 0.00 0.00 54 1023.3
20260905221003 71 340 0.9 1.7 0.00 0.00 0.00 54 1023.2
20260905220501 71 12 0.9 3.5 0.00 0.00 0.00 53 1023.2
20260905220002 71 360 1.7 3.5 0.00 0.00 0.00 53 1023.2
20260905215502 72 347 0.9 3.5 0.00 0.00 0.00 53 1023.0
20260905215000 72 360 0.9 3.5 0.00 0.00 0.00 52 1023.0
20260905214002 72 346 1.7 4.3 0.00 0.00 0.00 51 1022.9
20260905212002 73 360 2.6 5.2 0.00 0.00 0.00 50 1022.8
20260905211500 74 355 2.6 5.2 0.00 0.00 0.00 49 1022.8
20260905211000 74 12 2.6 5.2 0.00 0.00 0.00 49 1022.7
20260905210502 74 48 2.6 7.0 0.00 0.00 0.00 49 1022.7
20260905210002 74 321 3.5 9.6 0.00 0.00 0.00 48 1022.6
20260905205503 74 20 2.6 9.6 0.00 0.00 0.00 48 1022.6
20260905205001 75 57 2.6 9.6 0.00 0.00 0.00 47 1022.5
20260905204502 75 5 3.5 9.6 0.00 0.00 0.00 48 1022.5
20260905204002 75 13 3.5 8.7 0.00 0.00 0.00 47 1022.4
20260905203501 75 343 3.5 8.7 0.00 0.00 0.00 47 1022.3
20260905203003 75 355 2.6 8.7 0.00 0.00 0.00 48 1022.3
20260905202502 75 13 3.5 7.8 0.00 0.00 0.00 48 1022.1
20260905202002 75 34 3.5 8.7 0.00 0.00 0.00 48 1022.1
20260905201501 75 13 3.5 8.7 0.00 0.00 0.00 48 1022.1
20260905201003 75 350 2.6 7.8 0.00 0.00 0.00 48 1022.1
20260905200504 76 323 3.5 7.8 0.00 0.00 0.00 47 1021.9
20260905200006 76 17 3.5 12.2 0.00 0.00 0.00 48 1021.8
20260905195502 76 332 3.5 12.2 0.00 0.00 0.00 47 1021.6
20260905195002 76 360 3.5 10.4 0.00 0.00 0.00 47 1021.6
20260905194502 76 22 3.5 9.6 0.00 0.00 0.00 47 1021.5
20260905194001 76 15 3.5 9.6 0.00 0.00 0.00 47 1021.4
20260905192501 77 350 4.3 12.2 0.00 0.00 0.00 48 1021.2
20260905192002 77 355 4.3 11.3 0.00 0.00 0.00 48 1021.2
20260905191502 77 355 5.2 11.3 0.00 0.00 0.00 48 1021.0
20260905191001 77 37 4.3 11.3 0.00 0.00 0.00 48 1020.9
20260905185503 78 12 4.3 11.3 0.00 0.00 0.00 49 1020.6
20260905185001 78 63 4.3 11.3 0.00 0.00 0.00 49 1020.4
20260905184502 78 342 4.3 11.3 0.00 0.00 0.00 49 1020.5
20260905184003 79 38 4.3 11.3 0.00 0.00 0.00 48 1020.3
20260905183502 79 355 2.6 8.7 0.00 0.00 0.00 49 1020.2
20260905183002 79 341 2.6 8.7 0.00 0.00 0.00 48 1020.2
20260905182502 79 10 2.6 7.8 0.00 0.00 0.00 48 1020.1
20260905182002 79 9 3.5 10.4 0.00 0.00 0.00 47 1020.0
20260905181502 80 24 3.5 10.4 0.00 0.00 0.00 47 1019.9
20260905181001 80 28 3.5 10.4 0.00 0.00 0.00 47 1019.7
20260905180503 80 66 4.3 10.4 0.00 0.00 0.00 47 1019.7
20260905180002 80 36 4.3 10.4 0.00 0.00 0.00 47 1019.5
20260905175501 80 89 5.2 14.8 0.00 0.00 0.00 47 1019.4
20260905175003 81 86 5.2 15.6 0.00 0.00 0.00 46 1019.4
20260905174501 81 70 5.2 15.6 0.00 0.00 0.00 46 1019.2
20260905174002 81 65 4.3 11.3 0.00 0.00 0.00 46 1019.1
20260905173503 82 309 3.5 9.6 0.00 0.00 0.00 45 1019.2
20260905173003 82 308 4.3 8.7 0.00 0.00 0.00 45 1019.2
20260905172501 82 78 5.2 10.4 0.00 0.00 0.00 46 1019.0
20260905172002 82 118 4.3 10.4 0.00 0.00 0.00 46 1018.8
20260905171500 82 332 4.3 11.3 0.00 0.00 0.00 46 1018.8
20260905170502 83 27 4.3 13.9 0.00 0.00 0.00 45 1018.5
20260905165501 84 62 5.2 12.2 0.00 0.00 0.00 45 1018.3
20260905165001 84 75 7.0 17.4 0.00 0.00 0.00 45 1018.2
20260905164501 84 72 5.2 17.4 0.00 0.00 0.00 46 1018.0
20260905163502 84 55 4.3 13.9 0.00 0.00 0.00 47 1018.0
20260905163002 85 339 4.3 13.9 0.00 0.00 0.00 47 1017.9
20260905162502 85 72 5.2 12.2 0.00 0.00 0.00 47 1017.9
20260905162002 85 97 6.1 13.9 0.00 0.00 0.00 47 1018.0
20260905161502 85 46 5.2 13.9 0.00 0.00 0.00 47 1017.8
20260905161001 85 81 5.2 12.2 0.00 0.00 0.00 47 1017.8
20260905160502 85 50 6.1 12.2 0.00 0.00 0.00 47 1017.9
20260905160000 86 320 6.1 13.0 0.00 0.00 0.00 47 1017.6
20260905155501 86 360 5.2 13.0 0.00 0.00 0.00 46 1017.5
20260905155000 87 25 5.2 13.0 0.00 0.00 0.00 47 1017.4
20260905154501 88 327 4.3 13.0 0.00 0.00 0.00 47 1017.3
20260905154001 88 5 5.2 18.2 0.00 0.00 0.00 47 1017.1
20260905153502 88 344 5.2 18.2 0.00 0.00 0.00 47 1017.0
20260905152502 90 40 7.0 18.2 0.00 0.00 0.00 47 1016.9
20260905151502 91 355 5.2 13.9 0.00 0.00 0.00 45 1016.8
20260905151003 91 5 5.2 13.9 0.00 0.00 0.00 45 1016.7
20260905150501 92 5 7.0 18.2 0.00 0.00 0.00 44 1016.8
20260905145000 93 326 4.3 13.9 0.00 0.00 0.00 39 1016.8
20260905144459 94 337 3.5 10.4 0.00 0.00 0.00 40 1016.7
20260905144002 94 33 4.3 11.3 0.00 0.00 0.00 39 1016.8
20260905143500 94 14 3.5 13.9 0.00 0.00 0.00 39 1016.7
20260905142459 95 355 1.7 12.2 0.00 0.00 0.00 39 1016.7
20260905142000 95 92 2.6 8.7 0.00 0.00 0.00 39 1016.7
20260905141500 95 229 3.5 11.3 0.00 0.00 0.00 39 1016.7
20260905140500 95 347 2.6 10.4 0.00 0.00 0.00 38 1016.7
20260905135500 96 281 2.6 9.6 0.00 0.00 0.00 38 1016.8
20260905135000 96 137 2.6 9.6 0.00 0.00 0.00 39 1016.7
20260905134500 96 331 2.6 9.6 0.00 0.00 0.00 38 1016.8
20260905133500 96 341 2.6 10.4 0.00 0.00 0.00 39 1016.8
20260905133002 96 245 2.6 10.4 0.00 0.00 0.00 40 1016.8
20260905132000 96 5 2.6 11.3 0.00 0.00 0.00 40 1016.9
20260905131500 96 261 2.6 7.0 0.00 0.00 0.00 40 1016.8
20260905130959 96 237 2.6 7.0 0.00 0.00 0.00 39 1016.9
20260905130500 96 198 2.6 8.7 0.00 0.00 0.00 40 1017.0
20260905130000 96 295 2.6 8.7 0.00 0.00 0.00 40 1017.0
20260905125502 96 355 3.5 8.7 0.00 0.00 0.00 39 1017.1
20260905125000 96 319 2.6 9.6 0.00 0.00 0.00 39 1017.2
20260905124000 96 360 2.6 10.4 0.00 0.00 0.00 40 1017.2
20260905123500 96 261 1.7 5.2 0.00 0.00 0.00 39 1017.3
20260905122500 96 309 6.1 12.2 0.00 0.00 0.00 39 1017.3
20260905122000 96 268 3.5 12.2 0.00 0.00 0.00 38 1017.4
20260905121002 96 342 2.6 8.7 0.00 0.00 0.00 40 1017.5
20260905120500 96 263 2.6 8.7 0.00 0.00 0.00 39 1017.5
20260905120002 96 265 1.7 7.0 0.00 0.00 0.00 38 1017.5
20260905115501 96 316 1.7 8.7 0.00 0.00 0.00 39 1017.6
20260905115000 96 275 3.5 8.7 0.00 0.00 0.00 40 1017.7
20260905114500 96 304 4.3 10.4 0.00 0.00 0.00 40 1017.7
20260905113959 96 271 4.3 10.4 0.00 0.00 0.00 38 1017.7
20260905113500 96 269 3.5 8.7 0.00 0.00 0.00 39 1017.7
20260905113000 95 263 2.6 6.1 0.00 0.00 0.00 39 1017.8
20260905112500 96 323 1.7 8.7 0.00 0.00 0.00 37 1017.8
20260905112001 95 277 1.7 8.7 0.00 0.00 0.00 39 1017.8
20260905111500 95 43 1.7 6.1 0.00 0.00 0.00 39 1017.9
20260905110502 95 134 2.6 7.0 0.00 0.00 0.00 40 1017.9
20260905110005 95 274 2.6 9.6 0.00 0.00 0.00 39 1017.9
20260905105502 95 30 3.5 9.6 0.00 0.00 0.00 38 1017.8
20260905104001 94 229 1.7 6.1 0.00 0.00 0.00 36 1018.0
20260905103001 94 316 3.5 9.6 0.00 0.00 0.00 37 1017.9
20260905102502 94 272 3.5 9.6 0.00 0.00 0.00 37 1017.9
20260905101503 94 306 2.6 9.6 0.00 0.00 0.00 37 1018.1
20260905100501 94 155 2.6 7.0 0.00 0.00 0.00 39 1018.2
20260905100004 93 360 1.7 7.0 0.00 0.00 0.00 38 1018.2
20260905095503 93 288 1.7 7.0 0.00 0.00 0.00 38 1018.2
20260905095003 93 319 1.7 6.1 0.00 0.00 0.00 39 1018.1
20260905094502 93 250 1.7 5.2 0.00 0.00 0.00 41 1018.1
20260905094003 92 254 0.9 5.2 0.00 0.00 0.00 40 1018.1
20260905093503 92 16 1.7 4.3 0.00 0.00 0.00 40 1018.1
20260905093002 92 342 2.6 6.1 0.00 0.00 0.00 40 1018.2
20260905092002 91 304 2.6 7.8 0.00 0.00 0.00 40 1018.1
20260905091001 91 289 2.6 7.8 0.00 0.00 0.00 40 1018.1
20260905090503 91 293 1.7 7.8 0.00 0.00 0.00 43 1018.1
20260905090001 90 336 1.7 7.8 0.00 0.00 0.00 46 1018.1
20260905085501 89 360 1.7 7.0 0.00 0.00 0.00 43 1018.0
20260905085002 89 211 2.6 8.7 0.00 0.00 0.00 46 1018.1
20260905084503 89 274 2.6 8.7 0.00 0.00 0.00 45 1018.1
20260905084001 89 281 2.6 6.1 0.00 0.00 0.00 44 1018.1
20260905083501 88 290 2.6 6.1 0.00 0.00 0.00 45 1018.0
20260905083003 88 5 1.7 5.2 0.00 0.00 0.00 44 1018.0
20260905082502 87 257 2.6 5.2 0.00 0.00 0.00 46 1017.9
20260905082005 87 267 2.6 7.0 0.00 0.00 0.00 47 1018.0
20260905081458 86 261 2.6 7.0 0.00 0.00 0.00 47 1018.0
20260905081003 86 252 1.7 3.5 0.00 0.00 0.00 48 1017.9
20260905080502 85 131 1.7 3.5 0.00 0.00 0.00 50 1018.0
20260905080004 84 234 1.7 5.2 0.00 0.00 0.00 50 1018.0
20260905075502 84 271 1.7 3.5 0.00 0.00 0.00 50 1018.0
20260905075002 83 254 1.7 4.3 0.00 0.00 0.00 51 1017.9
20260905074002 82 272 0.9 4.3 0.00 0.00 0.00 52 1017.9
20260905073502 81 221 0.9 1.7 0.00 0.00 0.00 55 1017.7
20260905073001 81 250 0.9 2.6 0.00 0.00 0.00 56 1017.8
20260905072501 80 234 0.9 3.5 0.00 0.00 0.00 55 1017.8
20260905071501 79 248 1.7 3.5 0.00 0.00 0.00 55 1017.7
20260905071004 78 236 2.6 4.3 0.00 0.00 0.00 57 1017.7
20260905070002 77 268 0.0 3.5 0.00 0.00 0.00 58 1017.6
20260905065502 76 133 0.9 3.5 0.00 0.00 0.00 58 1017.5
20260905065001 75 205 0.9 3.5 0.00 0.00 0.00 59 1017.6
20260905064502 75 253 0.9 3.5 0.00 0.00 0.00 59 1017.5
20260905064001 74 250 0.9 3.5 0.00 0.00 0.00 61 1017.5
20260905063000 73 232 0.0 2.6 0.00 0.00 0.00 62 1017.4
20260905062501 73 146 0.0 0.9 0.00 0.00 0.00 63 1017.5
20260905062002 73 146 0.0 2.6 0.00 0.00 0.00 62 1017.4
20260905061002 73 140 0.9 3.5 0.00 0.00 0.00 62 1017.4
20260905060500 72 141 1.7 4.3 0.00 0.00 0.00 61 1017.4
20260905055959 72 148 1.7 4.3 0.00 0.00 0.00 62 1017.3
20260905055500 72 143 0.9 5.2 0.00 0.00 0.00 61 1017.3
20260905054501 72 152 1.7 5.2 0.00 0.00 0.00 62 1017.3
20260905054001 71 151 2.6 5.2 0.00 0.00 0.00 62 1017.3
20260905053502 71 134 2.6 6.1 0.00 0.00 0.00 62 1017.3
20260905053001 71 132 2.6 6.1 0.00 0.00 0.00 62 1017.3
20260905052502 71 157 2.6 6.1 0.00 0.00 0.00 62 1017.2
20260905051959 71 181 2.6 5.2 0.00 0.00 0.00 63 1017.4
20260905051500 70 158 2.6 6.1 0.00 0.00 0.00 63 1017.3
20260905051000 70 159 1.7 4.3 0.00 0.00 0.00 63 1017.3
20260905050500 70 149 1.7 5.2 0.00 0.00 0.00 63 1017.4
20260905050000 70 175 2.6 5.2 0.00 0.00 0.00 62 1017.4
20260905045500 70 142 2.6 5.2 0.00 0.00 0.00 63 1017.4
20260905045000 70 171 2.6 6.1 0.00 0.00 0.00 63 1017.4
20260905043500 70 164 0.0 3.5 0.00 0.00 0.00 63 1017.4
20260905043002 70 142 0.0 1.7 0.00 0.00 0.00 63 1017.4
20260905042459 70 128 0.0 1.7 0.00 0.00 0.00 63 1017.4
20260905042001 70 138 0.9 2.6 0.00 0.00 0.00 63 1017.3
20260905041459 70 150 1.7 4.3 0.00 0.00 0.00 62 1017.4
20260905041001 70 159 2.6 4.3 0.00 0.00 0.00 62 1017.4
20260905040000 70 149 3.5 6.1 0.00 0.00 0.00 62 1017.4
20260905035459 70 144 3.5 6.1 0.00 0.00 0.00 62 1017.5
20260905035002 70 146 3.5 6.1 0.00 0.00 0.00 62 1017.4
20260905034459 70 126 3.5 6.1 0.00 0.00 0.00 62 1017.4
20260905033959 70 123 3.5 4.3 0.00 0.00 0.00 62 1017.5
20260905033459 70 138 3.5 4.3 0.00 0.00 0.00 62 1017.5
20260905032959 70 146 3.5 5.2 0.00 0.00 0.00 62 1017.5
20260905032459 70 150 2.6 5.2 0.00 0.00 0.00 62 1017.5
20260905032000 70 168 3.5 6.1 0.00 0.00 0.00 62 1017.5
20260905031500 70 177 2.6 6.1 0.00 0.00 0.00 62 1017.6
20260905031000 70 138 3.5 5.2 0.00 0.00 0.00 62 1017.6
20260905030459 70 138 3.5 6.1 0.00 0.00 0.00 62 1017.6
20260905025959 70 138 3.5 6.1 0.00 0.00 0.00 62 1017.6
20260905025500 70 163 3.5 6.1 0.00 0.00 0.00 62 1017.6
20260905025000 70 111 3.5 7.0 0.00 0.00 0.00 62 1017.6
20260905024459 70 161 3.5 7.0 0.00 0.00 0.00 62 1017.7